User: anonymous   Login
Location: New Canada
(47.1017°N, 68.5042°W)
Time: 05:24:49
(UTC+00:00)
Language:

XW-2C - Orbit

View from above orbital plane
View from above orbital plane
View from above satellite
View from above satellite

Ground track
Ground track

The orbit data is extracted from the following two-line orbital elements,

1 40906U 15049H   24106.83055442  .00034096  00000-0  90432-3 0  9995
2 40906  97.4847 122.1938 0010412 153.8204 206.3569 15.38188649474871
Epoch (UTC): 15 April 2024 19:55:59
Eccentricity: 0.0010412
inclination: 97.4847°
perigee height: 444 km
apogee height: 458 km
right ascension of ascending node: 122.1938°
argument of perigee: 153.8204°
revolutions per day: 15.38188649
mean anomaly at epoch: 206.3569°
orbit number at epoch: 47487

The dashed part of the orbit path shows where the satellite is in the earth's shadow,  

DLR